Location: Coffee Creek Observatory
(38.8077°N, 94.7179°W)
Time: 14:08:11
(UTC-05:00)

Amateur Radio Satellites - All Passes

Search period start: 01 September 2014 13:38
Search period end: 02 September 2014 13:38
Location: Coffee Creek Observatory, 38.8077°N, 94.7179°W

Satellite Date Start Highest point End Downlink Frequencies (MHz)
Time Altitude Azimuth
AO-Echo 01 Sep 13:41:56 13:45:53 24° 67° (ENE) 13:49:44 ?
RS-15 01 Sep 13:46:39 13:53:32 18° 13° (NNE) 14:00:29 29.354 - 29.394 USB, Beacon 29.352 USB
SO-50 01 Sep 13:47:59 13:52:09 30° 247° (WSW) 13:56:21 436.795 FM
MaSat-1 01 Sep 13:48:42 13:53:32 60° 297° (WNW) 13:58:39 437.345 MHz
UOSAT-12 01 Sep 13:57:11 14:01:27 32° 50° (NE) 14:05:38 437.025 FM, 437.400 FM
Oscar 16 01 Sep 14:02:38 14:07:47 85° 76° (ENE) 14:13:00 437.025 USB, Beacon 2401.1428
ITAMSAT 1 01 Sep 14:04:29 14:09:12 37° 69° (ENE) 14:13:55 435.822 SSB
PANSAT 01 Sep 14:11:28 14:13:55 16° 187° (S) 14:16:22 not established
Uribyol 2 01 Sep 14:13:42 14:18:38 48° 71° (ENE) 14:23:35 436.500 FM
TMSAT-1 01 Sep 14:24:30 14:28:09 19° 64° (ENE) 14:31:48 436.925 FM
AO-27 01 Sep 14:33:30 14:38:39 72° 74° (ENE) 14:43:49 436.795 MHz FM
AO-7 01 Sep 14:43:46 14:48:28 17° 50° (NE) 14:53:10 29.400 - 29.500 MHz
JAS-1B 01 Sep 14:44:04 14:53:54 84° 74° (ENE) 15:02:42 435.800 - 435.900 CW/SSB
Oscar 19 01 Sep 15:07:56 15:12:04 24° 265° (W) 15:16:15 437.125 CW, 437.150 USB
Gurwin Techsat 1B 01 Sep 15:12:00 15:17:17 73° 74° (ENE) 15:22:35 435.225 FM
AO-Echo 01 Sep 15:19:50 15:24:27 36° 262° (W) 15:28:58 ?
UOSAT-12 01 Sep 15:37:28 15:41:30 29° 247° (WSW) 15:45:28 437.025 FM, 437.400 FM
ITAMSAT 1 01 Sep 15:44:34 15:48:45 25° 265° (W) 15:52:57 435.822 SSB
Uribyol 2 01 Sep 15:54:46 15:58:20 19° 267° (W) 16:01:55 436.500 FM
RS-15 01 Sep 15:59:38 16:10:01 43° 45° (NE) 16:20:42 29.354 - 29.394 USB, Beacon 29.352 USB
TMSAT-1 01 Sep 16:02:30 16:07:38 52° 260° (W) 16:12:49 436.925 FM
ISS 01 Sep 16:03:21 16:06:07 23° 27° (NNE) 16:08:52 145.800 FM
Uosat F 01 Sep 16:11:50 16:16:23 37° 69° (ENE) 16:20:57 435.120 FM
AO-27 01 Sep 16:16:36 16:18:39 12° 270° (W) 16:20:43 436.795 MHz FM
Sapphire 01 Sep 16:18:03 16:22:35 28° 108° (ESE) 16:27:08 437.095 MHz 1200 baud AX-25 AFSK
AO-7 01 Sep 16:31:35 16:39:53 75° 70° (ENE) 16:48:12 29.400 - 29.500 MHz
JAS-1B 01 Sep 16:37:51 16:44:54 22° 269° (W) 16:51:34 435.800 - 435.900 CW/SSB
PCSat 01 Sep 16:46:24 16:51:40 55° 113° (ESE) 16:56:57 145.825 MHz
Gurwin Techsat 1B 01 Sep 16:55:30 16:57:45 13° 270° (W) 17:00:00 435.225 FM
Hamsat 01 Sep 17:38:09 17:41:32 23° 69° (ENE) 17:44:58 145.90 MHz
ISS 01 Sep 17:39:47 17:42:58 44° 224° (SW) 17:46:09 145.800 FM
OPAL 01 Sep 17:41:25 17:46:34 56° 103° (ESE) 17:51:39 ?
Uosat F 01 Sep 17:51:15 17:55:14 24° 265° (W) 17:59:14 435.120 FM
Sapphire 01 Sep 18:00:48 18:05:49 38° 305° (NW) 18:10:52 437.095 MHz 1200 baud AX-25 AFSK
RS-15 01 Sep 18:11:58 18:22:46 59° 247° (WSW) 18:34:01 29.354 - 29.394 USB, Beacon 29.352 USB
JAS-2 01 Sep 18:20:18 18:26:24 70° 74° (ENE) 18:31:53 435.800 - 435.900 CW/SSB, 435.910 FM
AO-7 01 Sep 18:27:19 18:33:20 22° 267° (W) 18:39:24 29.400 - 29.500 MHz
PCSat 01 Sep 18:31:16 18:35:25 22° 311° (NW) 18:39:36 145.825 MHz
SO-67 01 Sep 18:43:11 18:44:52 13° 68° (ENE) 18:46:34 435.3500 MHz FM
Hamsat 01 Sep 19:13:35 19:17:20 29° 264° (W) 19:21:09 145.90 MHz
OPAL 01 Sep 19:21:27 19:24:58 19° 299° (WNW) 19:28:28 ?
STRAND 1 01 Sep 19:28:52 19:33:22 31° 97° (E) 19:37:51 ?
HO-68 01 Sep 19:51:09 19:55:38 18° 56° (NE) 20:00:06 435.675 MHz FM
JAS-2 01 Sep 20:08:39 20:11:49 15° 267° (W) 20:14:51 435.800 - 435.900 CW/SSB, 435.910 FM
SO-67 01 Sep 20:14:29 20:17:37 31° 263° (W) 20:20:45 435.3500 MHz FM
STRAND 1 01 Sep 21:08:05 21:12:27 29° 292° (WNW) 21:16:49 ?
UKube-1 01 Sep 21:10:00 21:13:31 25° 68° (ENE) 21:17:02 145.840 MHz, 145.915 MHz
Oscar 11 01 Sep 21:14:35 21:17:24 17° 66° (ENE) 21:20:13 145.825 FM, Beacon 2401.500 USB
HO-68 01 Sep 21:35:16 21:42:25 86° 254° (WSW) 21:49:36 435.675 MHz FM
Saudisat 1A 01 Sep 21:43:04 21:46:20 21° 111° (ESE) 21:49:37 436.775 MHz
FUNcube-1 01 Sep 21:46:56 21:49:10 14° 65° (ENE) 21:51:25 145.950 - 145.970 MHz USB
MaSat-1 01 Sep 22:08:21 22:11:58 23° 53° (NE) 22:15:13 437.345 MHz
KITSAT 1 01 Sep 22:25:54 22:32:15 26° 105° (ESE) 22:38:36 435.175 FM
AO-40 01 Sep 22:43:53 04:05:33 40° 152° (SSE) 05:41:46 Beacon 2401.320
UKube-1 01 Sep 22:45:54 22:49:36 27° 263° (W) 22:53:18 145.840 MHz, 145.915 MHz
Oscar 11 01 Sep 22:49:10 22:53:15 40° 262° (W) 22:57:22 145.825 FM, Beacon 2401.500 USB
FUNcube-1 01 Sep 23:21:06 23:25:07 47° 261° (W) 23:29:15 145.950 - 145.970 MHz USB
Saudisat 1A 01 Sep 23:21:32 23:25:39 38° 307° (NW) 23:29:48 436.775 MHz
HO-68 01 Sep 23:27:48 23:31:00 13° 271° (W) 23:34:12 435.675 MHz FM
MaSat-1 01 Sep 23:45:11 23:48:59 29° 255° (WSW) 23:52:19 437.345 MHz
KITSAT 1 02 Sep 00:18:58 00:26:59 66° 303° (WNW) 00:35:03 435.175 FM
Sapphire 02 Sep 01:07:09 01:11:06 20° 48° (NE) 01:15:02 437.095 MHz 1200 baud AX-25 AFSK
PCSat 02 Sep 01:35:46 01:40:43 35° 54° (NE) 01:45:37 145.825 MHz
Oscar 19 02 Sep 01:42:13 01:45:03 15° 91° (E) 01:47:52 437.125 CW, 437.150 USB
Oscar 10/S400 02 Sep 02:11:39 03:15:58 51° 218° (SW) 09:58:42 145.825 - 145.975 CW/USB, Beacon 145.810 USB
Oscar 16 02 Sep 02:16:02 02:20:44 33° 97° (E) 02:25:23 437.025 USB, Beacon 2401.1428
KITSAT 1 02 Sep 02:18:55 02:24:05 18° 326° (NW) 02:29:15 435.175 FM
ITAMSAT 1 02 Sep 02:20:03 02:22:46 14° 91° (E) 02:25:30 435.822 SSB
SO-50 02 Sep 02:23:56 02:25:39 12° 107° (ESE) 02:27:24 436.795 FM
Uribyol 2 02 Sep 02:28:38 02:32:16 19° 93° (E) 02:35:54 436.500 FM
JAS-1B 02 Sep 02:34:44 02:39:19 20° 90° (E) 02:43:33 435.800 - 435.900 CW/SSB
AO-27 02 Sep 02:48:21 02:52:48 28° 96° (E) 02:57:13 436.795 MHz FM
Sapphire 02 Sep 02:49:36 02:54:58 63° 246° (WSW) 03:00:18 437.095 MHz 1200 baud AX-25 AFSK
PCSat 02 Sep 03:19:17 03:24:02 32° 251° (WSW) 03:28:46 145.825 MHz
Oscar 19 02 Sep 03:19:39 03:24:47 62° 287° (WNW) 03:29:53 437.125 CW, 437.150 USB
OPAL 02 Sep 03:20:56 03:22:06 11° 57° (ENE) 03:23:17 ?
AO-Echo 02 Sep 03:27:47 03:32:30 79° 103° (ESE) 03:37:14 ?
Gurwin Techsat 1B 02 Sep 03:29:56 03:34:40 32° 97° (E) 03:39:22 435.225 FM
Oscar 16 02 Sep 03:55:33 03:59:56 28° 293° (WNW) 04:04:18 437.025 USB, Beacon 2401.1428
ITAMSAT 1 02 Sep 03:57:32 04:02:40 63° 287° (WNW) 04:07:47 435.822 SSB
SO-50 02 Sep 04:01:10 04:05:36 65° 303° (WNW) 04:10:09 436.795 FM
Uribyol 2 02 Sep 04:06:59 04:11:58 48° 289° (WNW) 04:16:57 436.500 FM
UOSAT-12 02 Sep 04:10:02 04:11:39 12° 107° (ESE) 04:13:17 437.025 FM, 437.400 FM
TMSAT-1 02 Sep 04:19:28 04:24:46 70° 102° (ESE) 04:30:02 436.925 FM
Uosat F 02 Sep 04:22:53 04:24:43 12° 91° (E) 04:26:32 435.120 FM
JAS-1B 02 Sep 04:24:11 04:30:32 51° 291° (WNW) 04:36:07 435.800 - 435.900 CW/SSB
AO-27 02 Sep 04:27:41 04:32:17 33° 292° (WNW) 04:36:52 436.795 MHz FM
AO-7 02 Sep 04:35:37 04:42:16 26° 95° (E) 04:48:52 29.400 - 29.500 MHz
OPAL 02 Sep 04:55:05 05:00:08 86° 73° (ENE) 05:05:19 ?
AO-Echo 02 Sep 05:09:35 05:10:37 11° 299° (WNW) 05:11:39 ?
Gurwin Techsat 1B 02 Sep 05:09:57 05:14:32 30° 292° (WNW) 05:19:06 435.225 FM
UOSAT-12 02 Sep 05:46:33 05:51:09 71° 303° (WNW) 05:55:51 437.025 FM, 437.400 FM
Uosat F 02 Sep 05:58:59 06:03:58 71° 286° (WNW) 06:08:56 435.120 FM
TMSAT-1 02 Sep 06:01:11 06:04:04 15° 298° (WNW) 06:06:56 436.925 FM
Saudisat 1A 02 Sep 06:10:55 06:13:26 15° 43° (NE) 06:15:57 436.775 MHz
KITSAT 1 02 Sep 06:19:49 06:23:52 14° 29° (NNE) 06:27:54 435.175 FM
RS-15 02 Sep 06:24:22 06:32:46 26° 103° (ESE) 06:41:01 29.354 - 29.394 USB, Beacon 29.352 USB
AO-7 02 Sep 06:27:22 06:35:32 65° 292° (WNW) 06:43:40 29.400 - 29.500 MHz
STRAND 1 02 Sep 06:43:33 06:48:16 40° 70° (ENE) 06:52:59 ?
Hamsat 02 Sep 07:00:02 07:04:18 53° 100° (E) 07:08:29 145.90 MHz
JAS-2 02 Sep 07:14:42 07:20:00 67° 102° (ESE) 07:25:48 435.800 - 435.900 CW/SSB, 435.910 FM
UOSAT-12 02 Sep 07:30:45 07:32:10 11° 322° (NW) 07:33:35 437.025 FM, 437.400 FM
SO-67 02 Sep 07:39:57 07:42:20 17° 94° (E) 07:44:41 435.3500 MHz FM
Saudisat 1A 02 Sep 07:49:06 07:53:30 71° 241° (WSW) 07:57:52 436.775 MHz
KITSAT 1 02 Sep 08:13:39 08:21:29 50° 53° (NE) 08:29:15 435.175 FM
AO-7 02 Sep 08:23:02 08:26:43 14° 312° (NW) 08:30:25 29.400 - 29.500 MHz
STRAND 1 02 Sep 08:23:37 08:27:34 22° 265° (W) 08:31:31 ?
RS-15 02 Sep 08:32:47 08:43:54 78° 302° (WNW) 08:54:53 29.354 - 29.394 USB, Beacon 29.352 USB
Hamsat 02 Sep 08:37:42 08:39:46 13° 295° (WNW) 08:41:49 145.90 MHz
ISS 02 Sep 08:46:50 08:48:04 12° 128° (SE) 08:49:18 145.800 FM
JAS-2 02 Sep 09:01:44 09:04:40 15° 297° (WNW) 09:07:42 435.800 - 435.900 CW/SSB, 435.910 FM
HO-68 02 Sep 09:05:59 09:10:45 19° 92° (E) 09:15:30 435.675 MHz FM
SO-67 02 Sep 09:12:33 09:15:20 23° 289° (WNW) 09:18:05 435.3500 MHz FM
KITSAT 1 02 Sep 10:09:28 10:16:36 36° 252° (WSW) 10:23:44 435.175 FM
ISS 02 Sep 10:21:05 10:24:23 68° 323° (NW) 10:27:42 145.800 FM
UKube-1 02 Sep 10:34:40 10:38:56 53° 101° (E) 10:43:10 145.840 MHz, 145.915 MHz
Oscar 11 02 Sep 10:37:58 10:42:03 38° 98° (E) 10:46:06 145.825 FM, Beacon 2401.500 USB
RS-15 02 Sep 10:49:38 10:58:18 26° 329° (NNW) 11:07:02 29.354 - 29.394 USB, Beacon 29.352 USB
HO-68 02 Sep 10:51:55 10:59:03 75° 288° (WNW) 11:06:11 435.675 MHz FM
SO-50 02 Sep 10:55:16 10:57:16 12° 40° (NE) 10:59:17 436.795 FM
FUNcube-1 02 Sep 11:11:13 11:15:26 36° 97° (E) 11:19:40 145.950 - 145.970 MHz USB
MaSat-1 02 Sep 11:55:55 11:58:32 14° 100° (E) 12:01:13 437.345 MHz
ISS 02 Sep 11:59:40 12:01:37 15° 341° (NNW) 12:03:35 145.800 FM
PANSAT 02 Sep 12:06:44 12:09:16 17° 174° (S) 12:11:47 not established
UKube-1 02 Sep 12:12:30 12:14:40 14° 296° (WNW) 12:16:49 145.840 MHz, 145.915 MHz
Oscar 11 02 Sep 12:14:57 12:17:56 18° 293° (WNW) 12:20:55 145.825 FM, Beacon 2401.500 USB
SO-50 02 Sep 12:33:48 12:38:37 78° 58° (ENE) 12:43:28 436.795 FM
UOSAT-12 02 Sep 12:39:48 12:41:06 11° 38° (NE) 12:42:24 437.025 FM, 437.400 FM
HO-68 02 Sep 12:42:16 12:45:33 14° 307° (NW) 12:48:51 435.675 MHz FM
FUNcube-1 02 Sep 12:48:09 12:51:35 21° 292° (WNW) 12:55:01 145.950 - 145.970 MHz USB
Oscar 19 02 Sep 12:57:43 13:01:24 20° 64° (ENE) 13:05:05 437.125 CW, 437.150 USB
RS-15 02 Sep 13:09:52 13:16:18 17° 6° (N) 13:22:48 29.354 - 29.394 USB, Beacon 29.352 USB
JAS-1B 02 Sep 13:15:47 13:23:10 27° 61° (ENE) 13:29:55 435.800 - 435.900 CW/SSB
